[[{"header":{"parameterUnit":"m.s-1","parameterCategory":1,"la1":30.2991,"la2":30.254,"lo1":-89.0895,"lo2":-89.0444,"dy":0.0017,"dx":0.0017,"nx":28,"ny":28,"refTime":"2024-03-03T09:00:00:Z","depth":0,"parameterNumber":2,"parameterNumberName":"U-component_of_WINDS"},"data":[0,0,0,0,0,0,0,0,0,0,0,0,0,0,0,0,0,0,0,0,0,0,0,0,0,0,0,0,0,0,0,0,0,0,0,0,0,0,0,0,0,0,0,0,0,0,0,0,0,0,0,0,0,0,0,0,0,0,-2.2872,-2.2872,0,-2.2894,-2.2894,-2.2894,-2.2832,-2.283,-2.2828,-2.2826,-2.285,-2.2853,-2.2855,0,0,0,0,0,0,0,0,0,0,0,0,0,-2.278,-2.2782,-2.2872,-2.2872,-2.2873,-2.2894,-2.2894,-2.2894,-2.2832,-2.283,-2.2828,-2.2825,-2.285,-2.2852,-2.2855,0,0,0,0,0,0,0,0,0,0,0,0,0,-2.2813,-2.2782,-2.2872,-2.2844,-2.2842,-2.2894,-2.2894,-2.2895,-2.2833,-2.283,-2.2827,-2.2824,-2.2849,-2.2852,-2.2856,-2.2936,0,0,-2.2867,-2.2868,0,0,0,0,0,0,0,0,-2.2811,-2.2816,-2.2848,-2.2846,-2.2844,-2.2857,-2.287,-2.2909,-2.2834,-2.2836,-2.2826,-2.2823,-2.2855,-2.2858,-2.2868,-2.2937,-2.2938,-2.2867,-2.2869,-2.2871,-2.2872,0,0,0,0,0,0,0,-2.2809,-2.2815,-2.2881,-2.2848,-2.2846,-2.2832,-2.2833,-2.2877,-2.2862,-2.2836,-2.2831,-2.2835,-2.2853,-2.2865,-2.2869,-2.2939,-2.2867,-2.287,-2.2873,-2.2874,-2.3078,-2.3081,0,0,0,0,0,0,-2.281,-2.2813,-2.288,-2.2881,-2.282,-2.2836,-2.2837,-2.2856,-2.2861,-2.2859,-2.2837,-2.2832,-2.286,-2.2864,-2.2869,-2.2965,-2.2871,-2.2874,-2.2876,-2.3074,-2.3078,-2.3082,0,0,0,0,0,0,-2.2808,-2.2816,-2.2879,-2.2846,-2.2853,-2.284,-2.2862,-2.2858,-2.2869,-2.2862,-2.2859,-2.2852,-2.2858,-2.2864,-2.292,-2.2965,-2.2876,-2.2879,-2.3071,-2.3076,-2.308,-2.3157,0,0,0,0,0,0,-2.2805,-2.2816,-2.2845,-2.2847,-2.2855,-2.2929,-2.2864,-2.286,-2.2876,-2.2869,-2.2875,-2.2873,-2.2856,-2.2915,-2.2924,-2.2969,-2.2882,-2.3066,-2.3073,-2.3078,-2.3151,-2.3164,-2.3176,0,0,0,0,0,-2.2802,-2.2866,-2.2847,-2.2855,-2.2891,-2.2932,-2.2936,-2.2915,-2.2879,-2.291,-2.2906,-2.2873,-2.2959,-2.2922,-2.2931,-2.2977,-2.3064,-2.3071,-2.3078,-2.3145,-2.3162,-2.3175,0,0,0,0,0,0,-2.2869,-2.2865,-2.2844,-2.291,-2.2922,-2.2921,-2.2958,-2.2933,-2.2955,-2.2947,-2.2921,-2.2923,-2.2985,-2.2987,-2.2945,-2.3057,-2.3005,-2.3015,-2.3053,-2.3069,-2.3081,-2.3079,-2.2885,0,0,0,0,0,-2.2892,-2.2924,-2.2919,-2.2978,-2.2985,-2.2971,-2.2988,-2.2971,-2.2982,-2.2986,-2.2986,-2.2999,-2.3029,-2.3049,-2.3076,-2.3151,-2.3153,-2.3188,-2.32,-2.3211,-2.3219,-2.3261,-2.3278,-2.3105,-2.3105,-2.3105,0,0,-2.2938,-2.294,-2.2962,-2.2991,-2.2998,-2.3034,-2.2975,-2.3014,-2.3041,-2.2992,-2.3046,-2.3046,-2.3059,-2.3126,-2.3155,-2.3129,-2.3267,-2.322,-2.3228,-2.3231,-2.3271,-2.3287,-2.3301,-2.311,-2.3109,-2.3109,0,0,-2.3041,-2.3045,-2.3095,-2.3104,-2.3115,-2.3106,-2.3119,-2.3123,-2.3121,-2.3175,-2.314,-2.3171,-2.3223,-2.3234,-2.3246,-2.3357,-2.3329,-2.3367,-2.3432,-2.3474,-2.3488,-2.3499,-2.3541,-2.3555,-2.3376,-2.3376,-2.3376,0,-2.3097,-2.3148,-2.3124,-2.3167,-2.3182,-2.314,-2.3192,-2.3202,-2.3222,-2.3234,-2.3204,-2.327,-2.3276,-2.3346,-2.3373,-2.3384,-2.3399,-2.3366,-2.3487,-2.3499,-2.351,-2.3549,-2.3564,-2.338,-2.338,-2.3379,-2.3379,0,-2.3218,-2.3254,-2.3293,-2.3314,-2.3334,-2.3381,-2.3366,-2.3389,-2.3371,-2.3366,-2.3422,-2.3427,-2.3456,-2.3471,-2.3454,-2.354,-2.3524,-2.3492,-2.3439,-2.3531,-2.3568,-2.3582,-2.3387,-2.3385,-2.3384,-2.3383,0,0,-2.3361,-2.337,-2.3385,-2.3395,-2.3407,-2.3435,-2.3481,-2.3509,-2.353,-2.3546,-2.3585,-2.3632,-2.3603,-2.3617,-2.3601,-2.3638,-2.3728,-2.3601,-2.3601,-2.3625,-2.3825,-2.385,-2.3867,-2.3709,-2.3712,-2.3714,-2.3824,0,-2.3463,-2.3542,-2.3523,-2.3602,-2.3636,-2.3599,-2.364,-2.3652,-2.3649,-2.3679,-2.3676,-2.3709,-2.3668,-2.3677,-2.3711,-2.3709,-2.3767,-2.3701,-2.3747,-2.3749,-2.3745,-2.3886,-2.3911,-2.4015,-2.3838,-2.3841,-2.3842,0,-2.3592,-2.3614,-2.3696,-2.3704,-2.3718,-2.3755,-2.3781,-2.3809,-2.3823,-2.3819,-2.3837,-2.3814,-2.3862,-2.381,-2.3877,-2.3832,-2.385,-2.3852,-2.3856,-2.386,-2.3801,-2.3894,-2.4047,-2.4063,-2.3864,-2.3862,-2.3861,0,-2.369,-2.374,-2.3796,-2.3806,-2.3816,-2.3844,-2.385,-2.3861,-2.388,-2.3903,-2.3915,-2.3944,-2.396,-2.3983,-2.397,-2.3933,-2.404,-2.3986,-2.4039,-2.4039,-2.4062,-2.4061,-2.4222,-2.4074,-2.4073,-2.4073,-2.4073,0,-2.3806,-2.3858,-2.3841,-2.3875,-2.3933,-2.3913,-2.3971,-2.3973,-2.3984,-2.4019,-2.3989,-2.4023,-2.4003,-2.4037,-2.4027,-2.4085,-2.4092,-2.4091,-2.4088,-2.4094,-2.4094,-2.4105,-2.4098,-2.4077,-2.4076,-2.4075,-2.4075,0,-2.3925,-2.3915,-2.3974,-2.398,-2.3983,-2.4026,-2.4031,-2.4064,-2.406,-2.4106,-2.4115,-2.4109,-2.4147,-2.4137,-2.4177,-2.4171,-2.4245,-2.4232,-2.424,-2.4237,-2.4291,-2.4287,-2.4464,-2.4488,-2.4324,-2.4326,-2.4327,0,-2.3999,-2.4039,-2.405,-2.4071,-2.408,-2.4115,-2.4134,-2.4117,-2.4139,-2.416,-2.4191,-2.4227,-2.4254,-2.4317,-2.4316,-2.4348,-2.4337,-2.4397,-2.4341,-2.4347,-2.4339,-2.4337,-2.4342,-2.4408,-2.441,-2.4412,-2.4413,0,-2.4134,-2.4128,-2.4157,-2.4186,-2.4211,-2.4232,-2.4251,-2.4271,-2.4255,-2.4282,-2.4321,-2.4342,-2.4385,-2.4421,-2.4451,-2.4458,-2.4434,-2.4431,-2.4445,-2.4452,-2.4455,-2.4455,-2.4271,-2.4426,-2.4425,-2.4424,-2.4423,-2.4423,-2.4233,-2.4267,-2.4281,-2.4316,-2.4329,-2.4348,-2.438,-2.4381,-2.4413,-2.4446,-2.4434,-2.4479,-2.4495,-2.4533,-2.4545,-2.4581,-2.4558,-2.4578,-2.4583,-2.4588,-2.4596,-2.4449,-2.4586,-2.4585,-2.4585,-2.4585,-2.4584,0,-2.4367,-2.4374,-2.4407,-2.4435,-2.4463,-2.4438,-2.4459,-2.4484,-2.4524,-2.4541,-2.4569,-2.4615,-2.4651,-2.4655,-2.4689,-2.4717,-2.4707,-2.4727,-2.4725,-2.4727,-2.4613,-2.4598,-2.4735,-2.4735,-2.4734,-2.4734,-2.4734,-2.4734,-2.4439,-2.4496,-2.4493,-2.4557,-2.4565,-2.4608,-2.4623,-2.4641,-2.4655,-2.4708,-2.4738,-2.474,-2.4753,-2.4788,-2.4821,-2.4821,-2.4836,-2.486,-2.4856,-2.475,-2.4735,-2.4721,-2.4706,-2.4863,-2.4863,-2.4967,-2.4968,-2.4969]},{"header":{"parameterUnit":"m.s-1","parameterCategory":1,"la1":30.2991,"la2":30.254,"lo1":-89.0895,"lo2":-89.0444,"dy":0.0017,"dx":0.0017,"nx":28,"ny":28,"refTime":"2024-03-03T09:00:00:Z","depth":0,"parameterNumber":3,"parameterNumberName":"V-component_of_WINDS"},"data":[0,0,0,0,0,0,0,0,0,0,0,0,0,0,0,0,0,0,0,0,0,0,0,0,0,0,0,0,0,0,0,0,0,0,0,0,0,0,0,0,0,0,0,0,0,0,0,0,0,0,0,0,0,0,0,0,0,0,0.4309,0.431,0,0.4376,0.4377,0.4378,0.4426,0.4426,0.4426,0.4427,0.4495,0.4496,0.4498,0,0,0,0,0,0,0,0,0,0,0,0,0,0.4222,0.4223,0.4309,0.431,0.4311,0.4376,0.4377,0.4378,0.4426,0.4426,0.4427,0.4427,0.4495,0.4496,0.4498,0,0,0,0,0,0,0,0,0,0,0,0,0,0.4271,0.4224,0.4309,0.4342,0.4346,0.4376,0.4377,0.4378,0.4426,0.4426,0.4427,0.4427,0.4494,0.4496,0.4498,0.45,0,0,0.4505,0.4506,0,0,0,0,0,0,0,0,0.4269,0.4275,0.4336,0.434,0.4344,0.4393,0.4371,0.4419,0.4425,0.4395,0.4427,0.4428,0.4461,0.4466,0.4477,0.4503,0.4506,0.4505,0.4506,0.4507,0.4508,0,0,0,0,0,0,0,0.4265,0.4272,0.4335,0.4337,0.4342,0.4354,0.4362,0.4381,0.4424,0.4398,0.4402,0.4409,0.4463,0.4475,0.4479,0.4507,0.4505,0.4507,0.4508,0.4509,0.454,0.4539,0,0,0,0,0,0,0.4256,0.4269,0.4333,0.4338,0.4307,0.4355,0.4364,0.4377,0.4424,0.4431,0.4408,0.4411,0.4471,0.4476,0.4481,0.4488,0.4507,0.4509,0.4511,0.454,0.4539,0.4539,0,0,0,0,0,0,0.4254,0.4262,0.4331,0.4304,0.4314,0.4356,0.437,0.4378,0.439,0.4432,0.444,0.4413,0.4471,0.4478,0.4495,0.4491,0.451,0.4512,0.4541,0.454,0.4539,0.4499,0,0,0,0,0,0,0.4252,0.4261,0.4262,0.4304,0.4315,0.4343,0.437,0.4379,0.4394,0.4397,0.4438,0.4445,0.4472,0.4492,0.4498,0.4494,0.4514,0.4541,0.454,0.4539,0.4501,0.4497,0.4494,0,0,0,0,0,0.4248,0.4247,0.4261,0.4269,0.4317,0.4343,0.4349,0.4381,0.4393,0.4394,0.4422,0.4444,0.449,0.4493,0.45,0.4497,0.4542,0.4541,0.4539,0.4503,0.4498,0.4494,0,0,0,0,0,0,0.4203,0.4253,0.427,0.4282,0.4308,0.4351,0.4354,0.4375,0.4398,0.44,0.4439,0.4447,0.4461,0.4481,0.4483,0.4502,0.4519,0.4519,0.4488,0.4484,0.448,0.4476,0.4516,0,0,0,0,0,0.4194,0.4211,0.4254,0.4261,0.4273,0.4311,0.4323,0.4346,0.4374,0.4385,0.4413,0.444,0.4461,0.4473,0.4495,0.4504,0.4514,0.4505,0.4502,0.4498,0.4498,0.4506,0.4503,0.4535,0.4535,0.4535,0,0,0.4177,0.4206,0.4215,0.4253,0.4275,0.4292,0.432,0.4336,0.4349,0.4388,0.4406,0.4427,0.4459,0.4473,0.448,0.449,0.4492,0.4497,0.4494,0.4496,0.4504,0.4501,0.4498,0.4534,0.4535,0.4535,0,0,0.4154,0.4177,0.4186,0.4209,0.4243,0.4268,0.427,0.431,0.4326,0.4345,0.4375,0.4391,0.4425,0.4447,0.4463,0.4449,0.4471,0.4455,0.4436,0.4443,0.444,0.4438,0.4434,0.4432,0.4454,0.4454,0.4454,0,0.4128,0.4154,0.4188,0.4203,0.4219,0.4255,0.4265,0.4285,0.4324,0.4334,0.4345,0.439,0.4414,0.4433,0.443,0.4441,0.4445,0.4451,0.4438,0.4436,0.4434,0.4431,0.4429,0.4452,0.4452,0.4453,0.4453,0,0.4121,0.4138,0.4141,0.4179,0.4196,0.4207,0.4244,0.4256,0.4278,0.4302,0.4321,0.4351,0.438,0.4386,0.4407,0.4409,0.4414,0.443,0.4448,0.4429,0.4426,0.4425,0.4449,0.445,0.4451,0.4451,0,0,0.407,0.4127,0.4128,0.4146,0.4187,0.4201,0.4215,0.4243,0.4254,0.428,0.4293,0.4322,0.4338,0.4355,0.4379,0.4384,0.4373,0.44,0.4402,0.4395,0.4378,0.4366,0.4364,0.4387,0.4387,0.4387,0.4376,0,0.4054,0.4081,0.4113,0.4129,0.4147,0.4182,0.4194,0.422,0.4244,0.4262,0.4288,0.4308,0.4326,0.4338,0.4345,0.4373,0.437,0.4374,0.44,0.4401,0.4392,0.4363,0.435,0.4338,0.4375,0.4375,0.4375,0,0.4039,0.4063,0.4082,0.4122,0.413,0.4141,0.417,0.4187,0.4218,0.4234,0.4254,0.428,0.4297,0.4312,0.4336,0.4338,0.4351,0.4366,0.4366,0.437,0.4387,0.4367,0.4335,0.4334,0.4374,0.4374,0.4374,0,0.4001,0.4039,0.4055,0.407,0.4116,0.4123,0.4143,0.4174,0.419,0.4215,0.4226,0.4252,0.4267,0.4287,0.4319,0.4328,0.434,0.4358,0.4355,0.4354,0.4357,0.4356,0.4327,0.4363,0.4363,0.4364,0.4364,0,0.398,0.399,0.404,0.4049,0.4062,0.4098,0.411,0.4133,0.416,0.4176,0.4207,0.4221,0.4262,0.4281,0.4306,0.4322,0.4329,0.4343,0.4349,0.434,0.4339,0.435,0.4352,0.4363,0.4363,0.4363,0.4363,0,0.3941,0.3974,0.3994,0.4037,0.4048,0.4056,0.4093,0.4104,0.4129,0.4148,0.4155,0.4194,0.4218,0.4252,0.4286,0.4303,0.4316,0.4326,0.4306,0.431,0.4305,0.4305,0.4283,0.4282,0.4317,0.4317,0.4317,0,0.3926,0.3934,0.3978,0.3991,0.401,0.403,0.4046,0.4082,0.4098,0.4134,0.4141,0.4167,0.419,0.4226,0.4258,0.4284,0.4296,0.4286,0.43,0.4291,0.4297,0.4296,0.4298,0.4283,0.4282,0.4282,0.4282,0,0.3895,0.3912,0.3934,0.3962,0.398,0.4004,0.4029,0.4037,0.4079,0.4095,0.412,0.4137,0.4172,0.4198,0.4229,0.425,0.4273,0.4277,0.4278,0.4269,0.4257,0.4264,0.4297,0.4277,0.4278,0.4278,0.4278,0.4279,0.3868,0.3878,0.3911,0.3935,0.3957,0.398,0.3993,0.402,0.4042,0.4073,0.4093,0.4117,0.4149,0.4193,0.4212,0.4232,0.4241,0.4242,0.4243,0.4243,0.424,0.4253,0.4238,0.4238,0.4238,0.4238,0.4238,0,0.3841,0.3864,0.3885,0.3919,0.3938,0.3958,0.3987,0.4002,0.4023,0.405,0.4072,0.4101,0.4127,0.4161,0.4189,0.4198,0.4209,0.4204,0.4204,0.4209,0.4229,0.4226,0.4195,0.4195,0.4195,0.4195,0.4195,0.4195,0.3828,0.3846,0.3866,0.3896,0.3919,0.3943,0.3958,0.398,0.4002,0.4033,0.4054,0.4076,0.4107,0.4138,0.4162,0.4171,0.4181,0.4172,0.4185,0.4203,0.4207,0.4211,0.4208,0.4174,0.4174,0.4163,0.4163,0.4163]}]]